Flag for Germany Weather past 2 weeks in Friesoythe, Lower Saxony, Germany

Now
46 °F

Cool.


Feels Like: 43 °F
Forecast: 37 / 47 °F
Wind: 7 mph from West

Location: Meppen-Mil

Current Time: Mar 5, 2015 at 5:57:19 PM

Latest Report: Mar 5, 2015 at 5:20 PM


Visibility: N/A

Pressure: 30.57 "Hg

Humidity: 66%

Dew point: 36 °F

Location of FriesoytheLocation

Historic Weather in Friesoythe — Graph

°F

Friesoythe temperature yesterday

Maximum temperature yesterday: 45 °F (at 2:20 PM)
Minimum temperature yesterday: 34 °F (at 4:20 AM)
Average temperature yesterday: 39 °F

Past Weeks' High & Low Weather Summary

 TemperatureHumidityPressure
High50 °F (Mar 1, 12:20 PM)100% (Feb 22, 1:20 AM)30.60 "Hg (Feb 22, 1:20 AM)
Low30 °F (Feb 22, 3:20 AM)49% (Mar 1, 12:20 AM)29.27 "Hg (Feb 21, 6:20 AM)
Average40 °F81%29.84 "Hg
* Reported Feb 18 4:20 PM — Mar 5 4:20 PM, Friesoythe, Weather by CustomWeather, © 2015

Note: Actual official high and low records may vary slightly from our data, if they occured in-between our weather recording intervals... More about our weather records

Advertising

Friesoythe weather history for previous 24 hours

 ConditionsComfort  
Time TempWeatherWind HumidityBarometerVisibility
4:20 PM
Thu, Mar 5
46 °FCool.7 mph66%30.57 "HgN/A
3:20 PM46 °FCool.10 mph62%30.57 "HgN/A
2:20 PM46 °FPartly sunny.9 mph57%30.57 "HgN/A
1:20 PM48 °FPartly sunny.9 mph58%30.57 "HgN/A
12:20 PM46 °FScattered clouds.8 mph66%30.60 "HgN/A
11:20 AM45 °FScattered clouds.7 mph76%30.60 "HgN/A
10:20 AM43 °FPartly sunny.7 mph87%30.60 "HgN/A
9:20 AM37 °FFog.6 mph93%30.60 "Hg1 mi
8:20 AM36 °FFog.6 mph93%30.57 "Hg1 mi
7:20 AM32 °FIce fog.5 mph93%30.57 "Hg1 mi
6:20 AM32 °FChilly.5 mph93%30.54 "Hg2 mi
5:20 AM34 °FChilly.6 mph93%30.54 "Hg3 mi
4:20 AM36 °FChilly.6 mph93%30.51 "Hg4 mi
2:20 AM34 °FChilly.5 mph93%30.48 "Hg6 mi
1:20 AM37 °FChilly.5 mph87%30.48 "HgN/A
12:20 AM39 °FChilly.6 mph81%30.45 "HgN/A
11:20 PM
Wed, Mar 4
41 °FQuite cool.8 mph76%30.42 "HgN/A
10:20 PM41 °FQuite cool.9 mph76%30.36 "HgN/A
9:20 PM41 °FQuite cool.8 mph76%30.33 "HgN/A
8:20 PM41 °FQuite cool.7 mph81%30.27 "Hg4 mi
7:20 PM41 °FQuite cool.9 mph87%30.24 "Hg4 mi
6:20 PM39 °FChilly.9 mph87%30.21 "HgN/A
5:20 PM39 °FChilly.8 mph93%30.18 "Hg2 mi
Weather by CustomWeather, © 2015

See weather overviewHow to use our weather pages